Sisters Island, British Columbia

12:11 PM PDT on August 21, 2017 (GMT -0700)
Sisters Island

Weather History for CWGT - March, 2013

Change the Weather History Date:

Sunday, March 3, 2013

  Actual Average Record
Temperature  
Mean Temperature 43 °F -  
Max Temperature 47 °F - - ()
Min Temperature 39 °F - - ()
Degree Days  
Heating Degree Days 22    
Moisture  
Dew Point 35 °F    
Average Humidity 72    
Maximum Humidity 82    
Minimum Humidity 52    
Precipitation  
Precipitation 0.00 in - - ()
Sea Level Pressure  
Sea Level Pressure 30.24 in    
Wind  
Wind Speed 14 mph ()    
Max Wind Speed 24 mph    
Max Gust Speed -    
T = Trace of Precipitation, MM = Missing Value Source: Averaged Metar Reports

Daily Weather History Graph

Daily Weather History Graph

Search for Another Location

Airport or City:

Trip Planner

Search our weather history database for the weather conditions in past years. The results will help you decide how hot, cold, wet, or windy it might be!

Date:

Astronomy

Mar. 03, 2013 Rise Set
Actual Time 6:55 AM PST 6:04 PM PST
Civil Twilight 6:23 AM PST 6:36 PM PST
Nautical Twilight 5:46 AM PST 7:13 PM PST
Astronomical Twilight 5:09 AM PST 7:50 PM PST
Moon 12:24 AM PST (3/3) 9:38 AM PST (3/3)
Length of Visible Light 12h 12m
Length of Day
11h 08m
Waning Gibbous, 62% of the Moon is Illuminated
Mar 3
Waning Gibbous
Mar 4
Last Quarter
Mar 11
New
Mar 19
First Quarter
Mar 27
Full

Hourly Weather History & Observations

Time (PST) Temp. Windchill Dew Point Humidity Pressure Visibility Wind Dir Wind Speed Gust Speed Precip Events Conditions
12:00 AM 41.0 °F 33.5 °F 35.6 °F 81% 30.16 in - West 13.8 mph - N/A   Unknown
1:00 AM 40.5 °F 33.2 °F 35.2 °F 82% 30.17 in - West 12.7 mph - N/A   Unknown
2:00 AM 40.3 °F 33.0 °F 34.0 °F 78% 30.19 in - WNW 12.7 mph - N/A   Unknown
3:00 AM 40.8 °F 32.9 °F 34.7 °F 79% 30.19 in - WNW 15.0 mph - N/A   Unknown
4:00 AM 40 °F - 35 °F 74% 30.20 in - West 11.5 mph - -  
4:00 AM 40.1 °F 33.2 °F 34.5 °F 80% 30.20 in - West 11.5 mph - N/A   Unknown
5:00 AM 39.9 °F 30.8 °F 33.3 °F 77% 30.21 in - West 18.4 mph - N/A   Unknown
6:00 AM 39.7 °F 30.9 °F 33.4 °F 78% 30.22 in - West 17.3 mph - N/A   Unknown
7:00 AM 40.3 °F 32.2 °F 31.5 °F 71% 30.23 in - WNW 15.0 mph - N/A   Unknown
8:00 AM 40.5 °F 31.5 °F 34.5 °F 79% 30.23 in - WNW 18.4 mph - N/A   Unknown
9:00 AM 41.5 °F 32.6 °F 34.0 °F 75% 30.24 in - NNW 19.6 mph - N/A   Unknown
10:00 AM 43 °F - 34 °F 61% 30.24 in - NNW 20.7 mph - -  
10:00 AM 43.0 °F 34.2 °F 34.0 °F 71% 30.24 in - NNW 20.7 mph - N/A   Unknown
11:00 AM 43.0 °F 33.5 °F 33.8 °F 70% 30.24 in - NW 24.2 mph - N/A   Unknown
12:00 PM 43.3 °F 34.5 °F 34.3 °F 71% 30.25 in - NW 21.9 mph - N/A   Unknown
1:00 PM 44.4 °F 36.6 °F 34.0 °F 67% 30.26 in - NW 18.4 mph - N/A   Unknown
2:00 PM 45.3 °F 38.1 °F 34.0 °F 65% 30.25 in - NW 17.3 mph - N/A   Unknown
3:00 PM 45.9 °F 39.1 °F 33.8 °F 63% 30.25 in - WNW 16.1 mph - N/A   Unknown
4:00 PM 47 °F - 35 °F 52% 30.25 in - WNW 11.5 mph - -  
4:00 PM 47.3 °F - 35.1 °F 62% 30.25 in - WNW 11.5 mph - N/A   Unknown
5:00 PM 46.9 °F - 35.2 °F 64% 30.25 in - WNW 15.0 mph - N/A   Unknown
6:00 PM 45.0 °F 39.3 °F 36.9 °F 73% 30.25 in - West 11.5 mph - N/A   Unknown
7:00 PM 44.2 °F 38.4 °F 36.7 °F 75% 30.27 in - WNW 11.5 mph - N/A   Unknown
8:00 PM 44.1 °F 37.7 °F 36.0 °F 73% 30.27 in - WNW 12.7 mph - N/A   Unknown
9:00 PM 43.0 °F 37.2 °F 37.2 °F 80% 30.28 in - West 10.4 mph - N/A   Unknown
10:00 PM 43 °F - 34 °F 61% 30.29 in - NW 13.8 mph - -  
10:00 PM 43.2 °F 36.2 °F 34.2 °F 71% 30.29 in - NW 13.8 mph - N/A   Unknown
11:00 PM 42.8 °F 35.4 °F 35.2 °F 75% 30.29 in - NW 15.0 mph - N/A   Unknown